GFSNE_prec_precacc_285.txt.gz
Total_Precipitation_Accumulation
1.58 1.51 1.51 1.37 1.42 1.59 1.90 2.33 2.97 2.66 1.62 1.00 0.98 1.01 1.09 1.19 1.42 1.29 1.16 1.50 1.50 1.47 1.50 1.52 1.47 1.63 1.73 1.98 2.28 2.35 2.81 3.45 3.37 2.67 2.32 2.34 2.18 2.21
1.64 1.72 1.71 1.67 1.66 1.51 1.49 1.72 2.06 2.53 2.33 1.29 1.18 1.17 1.36 1.63 2.11 2.00 1.90 2.21 1.79 1.60 1.50 1.19 1.03 0.95 1.01 1.08 1.02 1.02 1.33 2.09 2.87 2.78 2.60 2.65 2.87 2.72
1.85 2.12 2.26 2.34 2.49 2.47 2.58 2.75 2.91 3.13 3.17 2.07 1.64 1.50 1.53 1.57 1.55 1.41 1.43 1.35 1.44 1.78 1.73 1.53 1.24 1.01 0.87 0.84 0.87 0.77 0.71 0.83 1.18 1.72 1.93 1.97 2.20 2.56
0.86 1.11 1.21 1.34 1.58 1.69 1.90 2.10 2.45 2.93 3.47 2.74 2.03 1.89 1.78 1.65 1.45 1.22 1.16 1.25 1.29 1.82 2.01 1.88 1.60 1.29 1.21 1.19 1.02 0.89 0.81 0.77 0.71 0.80 1.12 1.36 1.50 1.59
0.75 0.82 0.94 1.04 1.07 1.09 1.15 1.24 1.31 1.46 1.77 1.77 1.41 1.21 1.24 1.42 1.60 1.60 1.45 1.38 1.35 1.85 1.93 2.09 1.88 1.55 1.26 1.10 1.12 1.17 1.17 1.00 0.84 0.78 0.89 1.19 1.53 1.71
0.65 0.71 0.75 0.92 1.09 1.25 1.58 1.76 1.63 1.56 1.42 1.28 1.26 1.13 1.05 1.08 1.17 1.21 1.22 1.12 0.97 0.92 1.17 1.69 1.73 1.31 1.16 1.04 0.94 0.93 1.06 1.22 1.32 1.25 1.16 1.14 1.21 1.39
1.16 1.14 1.27 1.36 1.47 1.35 1.17 1.08 1.22 1.25 1.32 1.46 1.34 1.07 0.96 0.93 0.91 0.94 1.02 1.07 1.10 1.06 0.89 1.00 0.79 0.72 0.70 0.77 0.83 0.93 0.93 0.97 1.07 1.23 1.32 1.33 1.40 1.52
1.35 1.48 1.47 1.75 1.35 1.36 1.32 1.25 1.19 1.20 1.06 0.89 0.86 0.82 0.84 0.91 0.96 1.06 1.14 1.24 1.21 0.96 0.94 1.03 0.89 0.76 0.52 0.45 0.69 0.72 0.80 0.86 0.90 0.90 1.02 1.21 1.22 1.21
0.94 0.95 0.79 0.82 0.89 0.71 0.83 0.81 0.76 0.70 0.66 0.67 0.63 0.51 0.48 0.51 0.70 0.85 0.85 0.93 0.85 0.72 0.91 1.13 0.98 0.79 0.51 0.45 0.47 0.40 0.47 0.57 0.63 0.69 0.76 0.83 1.00 1.22
0.66 0.52 0.44 0.42 0.46 0.41 0.44 0.50 0.52 0.48 0.47 0.45 0.45 0.44 0.46 0.51 0.62 0.84 0.81 0.88 0.84 0.69 0.55 0.67 0.56 0.50 0.31 0.28 0.35 0.32 0.35 0.37 0.39 0.45 0.54 0.67 0.77 0.85
0.49 0.38 0.34 0.27 0.38 0.35 0.31 0.35 0.36 0.34 0.52 0.61 0.69 0.80 0.84 0.82 0.71 0.70 0.78 0.82 0.78 0.46 0.32 0.33 0.31 0.31 0.27 0.21 0.21 0.30 0.32 0.38 0.46 0.53 0.48 0.50 0.63 0.74
0.27 0.22 0.27 0.28 0.38 0.31 0.26 0.18 0.21 0.15 0.17 0.23 0.26 0.34 0.44 0.49 0.59 0.49 0.48 0.78 0.73 0.86 0.47 0.63 0.41 0.31 0.59 0.20 0.16 0.22 0.25 0.30 0.33 0.40 0.65 0.75 0.69 0.70
0.18 0.11 0.10 0.25 0.40 0.40 0.36 0.20 0.20 0.20 0.21 0.20 0.18 0.25 0.34 0.46 0.52 0.54 0.55 0.76 1.03 0.81 0.27 0.95 1.14 0.57 0.93 0.37 0.09 0.11 0.14 0.20 0.28 0.34 0.45 0.63 0.87 0.90
0.11 0.05 0.09 0.24 0.40 0.37 0.30 0.22 0.22 0.22 0.16 0.13 0.15 0.19 0.28 0.39 0.46 0.56 0.69 0.81 0.79 0.83 0.44 0.68 1.52 0.72 1.09 0.88 0.34 0.13 0.16 0.18 0.24 0.30 0.37 0.58 0.76 0.89
0.07 0.10 0.17 0.27 0.39 0.32 0.21 0.18 0.16 0.14 0.14 0.19 0.17 0.16 0.19 0.28 0.44 0.62 0.75 0.82 0.91 0.84 0.79 0.85 1.08 0.90 1.24 1.28 0.66 0.26 0.31 0.28 0.24 0.27 0.37 0.52 0.64 0.72
0.08 0.11 0.20 0.33 0.40 0.34 0.23 0.16 0.12 0.15 0.21 0.28 0.23 0.18 0.24 0.35 0.50 0.56 0.70 0.66 0.89 0.72 0.73 0.90 0.90 1.17 1.50 0.95 0.90 0.65 0.30 0.50 0.40 0.38 0.46 0.45 0.53 0.70
0.42 0.26 0.27 0.30 0.33 0.29 0.23 0.18 0.22 0.29 0.37 0.34 0.43 0.46 0.43 0.43 0.42 0.40 0.62 0.81 0.98 0.63 0.54 0.58 0.79 0.90 0.95 0.97 1.15 0.62 0.44 0.38 0.33 0.51 0.60 0.54 0.45 0.66
0.47 0.32 0.28 0.31 0.29 0.28 0.29 0.31 0.31 0.39 0.41 0.49 0.58 0.59 0.67 0.64 0.58 0.58 0.62 0.77 0.76 0.51 0.58 0.64 0.71 1.05 0.97 0.80 0.76 0.70 0.66 0.44 0.32 0.33 0.45 0.86 0.48 0.33
0.43 0.17 0.19 0.26 0.30 0.31 0.35 0.39 0.40 0.31 0.43 0.66 0.78 0.80 0.87 0.90 0.90 0.79 0.58 0.69 0.66 0.53 0.57 0.70 0.95 1.43 1.64 0.75 0.40 0.45 0.86 0.70 0.47 0.45 0.44 0.56 0.61 0.35
0.28 0.19 0.16 0.19 0.26 0.35 0.39 0.46 0.52 0.52 0.58 0.63 0.75 0.78 0.92 1.09 0.94 0.72 0.62 0.73 0.77 0.72 0.69 0.65 0.76 1.09 1.85 1.26 1.19 0.45 0.41 0.82 0.99 0.72 0.44 0.41 0.55 0.47
0.21 0.25 0.18 0.21 0.31 0.39 0.46 0.58 0.69 0.71 0.69 0.84 0.78 0.76 0.73 1.09 0.94 0.63 0.70 0.64 0.81 0.92 0.77 0.39 0.30 0.64 1.15 1.58 1.60 0.64 0.53 0.57 0.81 1.20 0.95 1.02 0.55 0.42
0.21 0.29 0.30 0.38 0.45 0.53 0.62 0.68 0.78 0.68 0.67 0.62 0.56 0.62 0.69 0.91 1.01 0.82 0.72 0.90 0.65 0.52 0.51 0.40 0.53 0.72 0.97 1.41 0.91 0.44 0.41 0.45 0.51 0.51 0.70 1.42 1.76 1.57
0.41 0.50 0.51 0.53 0.60 0.71 0.80 0.82 0.72 0.54 0.46 0.58 0.59 0.59 0.70 0.91 0.66 0.74 0.76 0.76 0.72 0.83 0.63 0.63 0.58 0.65 0.75 0.78 0.87 0.71 0.49 0.41 0.35 0.37 0.41 0.42 0.44 0.47

GFSNE_prec_precacc_288.txt.gz
Total_Precipitation_Accumulation
1.58 1.51 1.51 1.37 1.42 1.59 1.90 2.33 2.97 2.66 1.62 1.00 0.98 1.01 1.09 1.19 1.42 1.29 1.16 1.50 1.50 1.47 1.51 1.54 1.48 1.63 1.73 1.98 2.28 2.35 2.81 3.45 3.37 2.67 2.32 2.34 2.18 2.22
1.64 1.72 1.71 1.67 1.66 1.51 1.49 1.72 2.06 2.53 2.33 1.29 1.18 1.17 1.36 1.63 2.11 2.00 1.90 2.21 1.79 1.60 1.51 1.20 1.04 0.97 1.02 1.08 1.02 1.02 1.33 2.09 2.87 2.78 2.60 2.66 2.87 2.73
1.85 2.12 2.26 2.34 2.49 2.47 2.58 2.75 2.91 3.13 3.17 2.07 1.64 1.50 1.53 1.57 1.55 1.41 1.43 1.35 1.44 1.78 1.74 1.57 1.27 1.03 0.87 0.84 0.87 0.77 0.71 0.83 1.18 1.72 1.93 1.97 2.20 2.56
0.86 1.11 1.21 1.34 1.58 1.69 1.90 2.10 2.45 2.93 3.49 2.75 2.03 1.89 1.78 1.65 1.45 1.22 1.16 1.25 1.29 1.82 2.03 2.00 1.74 1.31 1.22 1.20 1.03 0.90 0.81 0.77 0.71 0.80 1.12 1.36 1.50 1.59
0.75 0.82 0.94 1.05 1.08 1.09 1.16 1.26 1.35 1.50 1.80 1.80 1.42 1.21 1.24 1.42 1.60 1.60 1.45 1.38 1.35 1.85 1.93 2.12 2.03 1.70 1.29 1.12 1.13 1.17 1.17 1.00 0.84 0.78 0.89 1.19 1.53 1.71
0.65 0.72 0.77 0.94 1.13 1.29 1.64 1.84 1.71 1.62 1.46 1.30 1.28 1.14 1.05 1.08 1.17 1.21 1.23 1.12 0.97 0.92 1.17 1.69 1.78 1.46 1.28 1.09 0.96 0.93 1.06 1.22 1.32 1.25 1.16 1.14 1.21 1.39
1.17 1.16 1.29 1.41 1.56 1.44 1.26 1.16 1.29 1.31 1.35 1.48 1.35 1.08 0.97 0.93 0.92 0.94 1.02 1.07 1.11 1.07 0.90 1.03 0.84 0.80 0.81 0.86 0.88 0.94 0.93 0.97 1.07 1.23 1.32 1.33 1.40 1.52
1.35 1.49 1.51 1.84 1.45 1.48 1.43 1.33 1.26 1.24 1.08 0.90 0.86 0.83 0.84 0.91 0.96 1.06 1.14 1.25 1.22 0.97 0.97 1.09 0.92 0.82 0.64 0.54 0.71 0.73 0.80 0.86 0.90 0.90 1.02 1.21 1.22 1.21
0.96 0.99 0.85 0.92 1.02 0.83 0.94 0.89 0.81 0.72 0.66 0.67 0.63 0.51 0.48 0.51 0.71 0.86 0.85 0.93 0.85 0.75 0.96 1.23 1.09 0.99 0.69 0.51 0.49 0.41 0.47 0.57 0.63 0.69 0.76 0.83 1.00 1.22
0.68 0.57 0.52 0.52 0.60 0.53 0.52 0.55 0.53 0.48 0.47 0.45 0.45 0.44 0.46 0.52 0.63 0.84 0.81 0.89 0.87 0.78 0.65 0.77 0.70 0.67 0.43 0.31 0.37 0.32 0.35 0.37 0.39 0.45 0.54 0.67 0.77 0.85
0.54 0.49 0.49 0.42 0.57 0.48 0.38 0.37 0.37 0.34 0.52 0.61 0.69 0.80 0.84 0.82 0.73 0.71 0.79 0.84 0.83 0.51 0.41 0.41 0.46 0.45 0.38 0.26 0.22 0.30 0.32 0.38 0.46 0.53 0.48 0.50 0.63 0.74
0.39 0.40 0.52 0.55 0.64 0.41 0.28 0.19 0.21 0.15 0.17 0.23 0.26 0.34 0.44 0.49 0.59 0.50 0.48 0.80 0.77 0.91 0.55 0.73 0.56 0.42 0.68 0.27 0.20 0.23 0.25 0.30 0.33 0.40 0.65 0.75 0.69 0.70
0.29 0.26 0.28 0.43 0.52 0.43 0.38 0.22 0.21 0.20 0.21 0.20 0.18 0.25 0.34 0.47 0.52 0.54 0.56 0.78 1.08 0.87 0.31 1.03 1.23 0.62 0.95 0.40 0.13 0.12 0.14 0.20 0.28 0.34 0.45 0.63 0.87 0.90
0.28 0.21 0.23 0.36 0.44 0.38 0.30 0.22 0.22 0.22 0.16 0.13 0.15 0.19 0.28 0.39 0.47 0.57 0.72 0.85 0.87 0.89 0.54 0.77 1.58 0.75 1.11 0.91 0.35 0.13 0.16 0.18 0.24 0.30 0.37 0.58 0.76 0.89
0.23 0.23 0.28 0.34 0.42 0.32 0.21 0.20 0.16 0.14 0.14 0.19 0.17 0.16 0.20 0.28 0.45 0.64 0.79 0.88 0.97 0.91 0.88 0.93 1.13 0.96 1.28 1.29 0.67 0.26 0.31 0.28 0.24 0.27 0.37 0.52 0.64 0.72
0.22 0.21 0.26 0.36 0.40 0.34 0.25 0.16 0.12 0.15 0.21 0.28 0.24 0.19 0.24 0.35 0.50 0.59 0.74 0.71 0.92 0.78 0.79 0.92 0.93 1.19 1.51 0.95 0.90 0.65 0.30 0.50 0.40 0.38 0.46 0.45 0.53 0.70
0.50 0.31 0.30 0.30 0.34 0.30 0.24 0.19 0.22 0.29 0.37 0.34 0.43 0.46 0.44 0.43 0.43 0.42 0.64 0.83 1.01 0.67 0.57 0.58 0.79 0.90 0.95 0.97 1.15 0.62 0.44 0.38 0.33 0.51 0.60 0.54 0.45 0.66
0.55 0.34 0.29 0.31 0.29 0.28 0.30 0.32 0.32 0.39 0.42 0.50 0.59 0.59 0.68 0.65 0.59 0.61 0.65 0.79 0.78 0.52 0.58 0.64 0.71 1.05 0.97 0.80 0.76 0.70 0.66 0.44 0.32 0.33 0.45 0.86 0.48 0.33
0.46 0.18 0.19 0.26 0.30 0.31 0.36 0.40 0.41 0.32 0.43 0.67 0.78 0.80 0.88 0.92 0.92 0.80 0.58 0.69 0.66 0.53 0.57 0.70 0.95 1.43 1.64 0.75 0.40 0.45 0.86 0.70 0.47 0.45 0.44 0.56 0.61 0.35
0.31 0.19 0.16 0.19 0.26 0.36 0.40 0.46 0.52 0.53 0.58 0.63 0.75 0.78 0.93 1.10 0.95 0.73 0.62 0.73 0.77 0.72 0.69 0.65 0.76 1.09 1.85 1.26 1.19 0.45 0.41 0.82 0.99 0.72 0.44 0.41 0.55 0.47
0.23 0.25 0.18 0.21 0.32 0.40 0.46 0.58 0.70 0.72 0.70 0.84 0.78 0.76 0.74 1.10 0.95 0.65 0.70 0.64 0.81 0.92 0.77 0.39 0.30 0.64 1.15 1.58 1.60 0.64 0.53 0.57 0.81 1.20 0.95 1.02 0.55 0.42
0.23 0.30 0.31 0.38 0.45 0.53 0.63 0.69 0.78 0.68 0.67 0.62 0.56 0.62 0.69 0.92 1.02 0.84 0.73 0.90 0.65 0.52 0.51 0.40 0.53 0.72 0.97 1.41 0.91 0.44 0.41 0.45 0.51 0.51 0.70 1.42 1.76 1.57
0.43 0.50 0.52 0.53 0.60 0.71 0.80 0.83 0.72 0.54 0.46 0.58 0.59 0.59 0.70 0.92 0.67 0.76 0.77 0.76 0.72 0.83 0.63 0.63 0.58 0.65 0.75 0.78 0.87 0.71 0.49 0.41 0.35 0.37 0.41 0.42 0.44 0.47

GFSNE_prec_precacc_294.txt.gz
Total_Precipitation_Accumulation
1.58 1.51 1.51 1.37 1.42 1.59 1.90 2.33 2.97 2.66 1.62 1.00 0.98 1.01 1.09 1.19 1.42 1.29 1.16 1.50 1.50 1.47 1.51 1.55 1.48 1.63 1.75 2.01 2.28 2.35 2.81 3.45 3.37 2.67 2.32 2.34 2.18 2.23
1.64 1.72 1.71 1.67 1.66 1.51 1.49 1.72 2.06 2.53 2.34 1.29 1.18 1.17 1.36 1.63 2.11 2.00 1.90 2.21 1.79 1.60 1.51 1.21 1.06 0.99 1.06 1.10 1.03 1.02 1.33 2.09 2.87 2.78 2.60 2.66 2.88 2.75
1.85 2.12 2.26 2.34 2.49 2.47 2.58 2.75 2.91 3.14 3.18 2.07 1.64 1.51 1.54 1.58 1.56 1.41 1.44 1.35 1.44 1.78 1.74 1.57 1.30 1.07 0.91 0.87 0.88 0.77 0.71 0.83 1.18 1.72 1.93 1.97 2.20 2.56
0.86 1.11 1.21 1.34 1.58 1.69 1.90 2.10 2.46 2.94 3.49 2.76 2.04 1.91 1.81 1.67 1.48 1.24 1.17 1.25 1.29 1.82 2.03 2.00 1.77 1.37 1.26 1.23 1.04 0.90 0.81 0.77 0.71 0.80 1.12 1.36 1.50 1.60
0.75 0.82 0.94 1.05 1.09 1.10 1.17 1.27 1.36 1.53 1.85 1.86 1.47 1.25 1.31 1.51 1.69 1.65 1.47 1.39 1.35 1.85 1.93 2.12 2.07 1.83 1.44 1.25 1.20 1.20 1.18 1.00 0.84 0.78 0.89 1.19 1.53 1.71
0.65 0.72 0.77 0.95 1.13 1.30 1.66 1.87 1.76 1.71 1.58 1.44 1.41 1.27 1.18 1.21 1.28 1.29 1.27 1.14 0.97 0.92 1.17 1.69 1.79 1.57 1.59 1.31 1.11 1.00 1.07 1.22 1.32 1.25 1.16 1.14 1.21 1.39
1.17 1.16 1.30 1.42 1.58 1.47 1.31 1.21 1.35 1.40 1.49 1.65 1.51 1.21 1.08 1.04 1.04 1.06 1.13 1.15 1.14 1.07 0.90 1.03 0.85 0.82 0.97 1.10 0.95 0.98 0.95 0.97 1.07 1.23 1.32 1.33 1.40 1.52
1.36 1.49 1.51 1.85 1.46 1.52 1.49 1.42 1.37 1.39 1.26 1.10 1.05 1.00 0.95 1.01 1.10 1.23 1.25 1.32 1.27 0.98 0.97 1.11 0.95 0.83 0.65 0.56 0.79 0.77 0.82 0.86 0.90 0.90 1.02 1.21 1.22 1.21
0.96 0.99 0.86 0.93 1.05 0.88 1.05 1.04 1.00 0.96 0.91 0.89 0.85 0.72 0.67 0.69 0.88 1.00 0.95 0.97 0.87 0.75 0.97 1.27 1.16 1.04 0.79 0.65 0.59 0.45 0.49 0.58 0.63 0.69 0.76 0.83 1.00 1.22
0.68 0.58 0.53 0.54 0.63 0.63 0.66 0.75 0.78 0.76 0.75 0.69 0.69 0.69 0.69 0.72 0.76 0.93 0.86 0.91 0.89 0.79 0.68 0.84 0.82 0.87 0.64 0.48 0.49 0.36 0.36 0.37 0.39 0.45 0.54 0.67 0.77 0.85
0.54 0.49 0.52 0.47 0.66 0.62 0.52 0.55 0.57 0.57 0.79 0.90 0.99 1.07 1.03 0.91 0.77 0.72 0.80 0.84 0.84 0.52 0.44 0.46 0.58 0.66 0.63 0.45 0.31 0.33 0.33 0.38 0.46 0.53 0.48 0.50 0.63 0.74
0.40 0.41 0.55 0.61 0.79 0.65 0.48 0.39 0.43 0.35 0.36 0.42 0.42 0.47 0.53 0.54 0.61 0.50 0.49 0.81 0.78 0.94 0.58 0.81 0.67 0.56 0.89 0.44 0.31 0.28 0.26 0.30 0.33 0.40 0.65 0.75 0.69 0.70
0.30 0.28 0.35 0.58 0.72 0.71 0.64 0.49 0.53 0.53 0.49 0.43 0.34 0.34 0.38 0.48 0.53 0.54 0.56 0.79 1.09 0.89 0.34 1.12 1.36 0.73 0.99 0.47 0.25 0.24 0.16 0.20 0.28 0.34 0.45 0.63 0.87 0.90
0.29 0.30 0.42 0.62 0.73 0.66 0.51 0.41 0.38 0.36 0.26 0.18 0.17 0.20 0.28 0.39 0.47 0.58 0.73 0.87 0.90 0.93 0.59 0.83 1.68 0.79 1.15 1.00 0.46 0.24 0.19 0.18 0.24 0.30 0.37 0.58 0.76 0.89
0.32 0.39 0.48 0.53 0.58 0.46 0.31 0.30 0.24 0.17 0.16 0.19 0.17 0.16 0.20 0.28 0.45 0.64 0.81 0.92 1.04 1.01 0.99 1.02 1.17 1.04 1.39 1.38 0.74 0.32 0.34 0.29 0.24 0.27 0.37 0.52 0.64 0.72
0.31 0.32 0.39 0.50 0.53 0.45 0.34 0.24 0.16 0.15 0.21 0.28 0.24 0.19 0.24 0.36 0.51 0.59 0.76 0.76 1.00 0.88 0.91 1.07 1.10 1.35 1.63 1.05 0.96 0.69 0.32 0.50 0.40 0.38 0.46 0.45 0.53 0.70
0.65 0.40 0.38 0.40 0.43 0.38 0.32 0.25 0.24 0.29 0.37 0.34 0.43 0.46 0.44 0.43 0.43 0.43 0.67 0.89 1.09 0.77 0.69 0.72 0.96 1.07 1.07 1.02 1.18 0.65 0.45 0.38 0.33 0.51 0.60 0.54 0.45 0.66
0.73 0.47 0.39 0.38 0.34 0.33 0.33 0.34 0.33 0.39 0.42 0.50 0.59 0.59 0.68 0.65 0.59 0.63 0.69 0.85 0.84 0.61 0.67 0.74 0.81 1.11 1.00 0.82 0.77 0.70 0.66 0.44 0.32 0.33 0.45 0.86 0.48 0.33
0.62 0.35 0.33 0.34 0.33 0.32 0.37 0.41 0.41 0.32 0.43 0.67 0.78 0.80 0.88 0.92 0.93 0.82 0.62 0.72 0.72 0.59 0.63 0.76 1.01 1.47 1.65 0.76 0.40 0.45 0.86 0.70 0.47 0.45 0.44 0.56 0.61 0.35
0.50 0.40 0.32 0.29 0.30 0.37 0.41 0.48 0.53 0.53 0.58 0.63 0.75 0.78 0.93 1.10 0.96 0.76 0.66 0.77 0.80 0.75 0.72 0.67 0.78 1.10 1.87 1.27 1.19 0.45 0.41 0.82 0.99 0.72 0.44 0.41 0.55 0.47
0.55 0.60 0.43 0.36 0.37 0.41 0.48 0.60 0.70 0.72 0.70 0.84 0.78 0.77 0.74 1.11 0.97 0.68 0.74 0.67 0.84 0.95 0.81 0.43 0.32 0.64 1.15 1.58 1.60 0.64 0.53 0.57 0.81 1.20 0.95 1.02 0.55 0.42
0.48 0.54 0.50 0.51 0.51 0.56 0.65 0.71 0.78 0.68 0.67 0.62 0.57 0.62 0.70 0.93 1.04 0.87 0.76 0.92 0.68 0.56 0.54 0.42 0.53 0.72 0.97 1.41 0.91 0.44 0.41 0.45 0.51 0.51 0.70 1.42 1.76 1.57
0.62 0.68 0.65 0.63 0.66 0.75 0.83 0.84 0.73 0.54 0.46 0.58 0.60 0.60 0.72 0.94 0.70 0.80 0.80 0.78 0.75 0.86 0.65 0.63 0.58 0.65 0.75 0.78 0.87 0.71 0.49 0.41 0.35 0.37 0.41 0.42 0.44 0.47

GFSNE_prec_precacc_297.txt.gz
Total_Precipitation_Accumulation
1.58 1.51 1.51 1.37 1.42 1.59 1.90 2.33 2.97 2.66 1.62 1.00 0.98 1.01 1.09 1.19 1.42 1.29 1.16 1.50 1.50 1.47 1.51 1.55 1.48 1.64 1.75 2.02 2.30 2.37 2.81 3.45 3.37 2.67 2.32 2.34 2.18 2.23
1.64 1.72 1.71 1.67 1.66 1.51 1.49 1.72 2.06 2.54 2.34 1.29 1.18 1.17 1.36 1.63 2.11 2.01 1.90 2.21 1.79 1.60 1.51 1.21 1.06 0.99 1.07 1.11 1.04 1.03 1.33 2.09 2.87 2.78 2.60 2.66 2.88 2.75
1.85 2.12 2.26 2.34 2.49 2.47 2.58 2.76 2.91 3.14 3.19 2.07 1.64 1.51 1.54 1.58 1.56 1.42 1.44 1.35 1.44 1.78 1.74 1.57 1.30 1.07 0.92 0.88 0.91 0.79 0.71 0.83 1.18 1.72 1.93 1.97 2.20 2.56
0.86 1.11 1.21 1.34 1.58 1.69 1.91 2.10 2.46 2.94 3.50 2.77 2.04 1.91 1.81 1.67 1.49 1.26 1.19 1.27 1.30 1.84 2.03 2.01 1.77 1.37 1.26 1.24 1.07 0.91 0.81 0.77 0.71 0.80 1.12 1.36 1.50 1.60
0.75 0.82 0.94 1.05 1.09 1.10 1.17 1.27 1.36 1.53 1.86 1.87 1.47 1.26 1.33 1.53 1.72 1.72 1.56 1.47 1.41 1.89 1.94 2.12 2.07 1.83 1.44 1.26 1.24 1.24 1.21 1.01 0.84 0.78 0.89 1.19 1.53 1.71
0.65 0.72 0.77 0.95 1.13 1.30 1.66 1.87 1.76 1.72 1.59 1.46 1.43 1.29 1.21 1.24 1.34 1.39 1.37 1.22 1.02 0.94 1.20 1.72 1.82 1.58 1.60 1.34 1.15 1.09 1.19 1.30 1.34 1.25 1.16 1.14 1.21 1.39
1.17 1.16 1.30 1.42 1.58 1.47 1.31 1.21 1.36 1.41 1.50 1.66 1.53 1.24 1.13 1.09 1.09 1.11 1.23 1.28 1.29 1.19 0.97 1.07 0.87 0.83 0.98 1.17 1.05 1.07 1.02 1.06 1.11 1.23 1.32 1.33 1.40 1.52
1.36 1.49 1.51 1.85 1.46 1.52 1.49 1.42 1.38 1.40 1.27 1.12 1.08 1.04 1.01 1.06 1.14 1.29 1.41 1.52 1.48 1.13 1.08 1.16 0.97 0.83 0.66 0.57 0.82 0.86 0.89 0.89 0.92 0.90 1.02 1.21 1.22 1.21
0.96 0.99 0.86 0.93 1.05 0.88 1.05 1.04 1.00 0.96 0.92 0.92 0.89 0.77 0.75 0.78 0.98 1.16 1.17 1.22 1.10 0.89 1.09 1.33 1.17 1.04 0.81 0.70 0.64 0.47 0.52 0.61 0.64 0.69 0.76 0.83 1.00 1.22
0.68 0.58 0.53 0.54 0.63 0.63 0.66 0.75 0.78 0.76 0.75 0.70 0.72 0.75 0.78 0.84 0.97 1.21 1.17 1.22 1.09 0.88 0.71 0.85 0.83 0.92 0.72 0.56 0.58 0.41 0.40 0.38 0.39 0.45 0.54 0.67 0.77 0.85
0.54 0.49 0.52 0.47 0.66 0.63 0.52 0.56 0.57 0.58 0.84 0.95 1.03 1.17 1.23 1.18 1.05 0.99 1.00 0.98 0.92 0.55 0.45 0.46 0.60 0.73 0.78 0.54 0.38 0.41 0.36 0.39 0.46 0.53 0.48 0.50 0.63 0.74
0.40 0.41 0.56 0.61 0.79 0.65 0.48 0.39 0.43 0.38 0.40 0.47 0.51 0.58 0.65 0.69 0.78 0.63 0.57 0.85 0.79 0.94 0.59 0.82 0.69 0.60 0.98 0.53 0.38 0.35 0.29 0.31 0.33 0.40 0.65 0.75 0.69 0.70
0.30 0.28 0.35 0.58 0.73 0.72 0.65 0.50 0.54 0.57 0.53 0.47 0.41 0.43 0.47 0.56 0.59 0.59 0.59 0.79 1.10 0.89 0.34 1.12 1.37 0.76 1.02 0.50 0.29 0.31 0.20 0.21 0.28 0.34 0.45 0.63 0.87 0.90
0.30 0.30 0.42 0.62 0.74 0.67 0.52 0.42 0.40 0.38 0.29 0.22 0.21 0.23 0.31 0.41 0.48 0.58 0.73 0.87 0.90 0.94 0.62 0.84 1.70 0.79 1.15 1.01 0.48 0.30 0.24 0.19 0.24 0.30 0.37 0.58 0.76 0.89
0.32 0.39 0.49 0.53 0.59 0.47 0.33 0.32 0.25 0.18 0.16 0.20 0.17 0.16 0.20 0.28 0.45 0.64 0.81 0.92 1.05 1.03 1.03 1.04 1.18 1.05 1.39 1.39 0.76 0.37 0.39 0.31 0.24 0.27 0.37 0.52 0.64 0.72
0.31 0.33 0.40 0.51 0.54 0.47 0.37 0.25 0.17 0.16 0.21 0.28 0.24 0.19 0.24 0.36 0.51 0.59 0.76 0.76 1.01 0.90 0.94 1.12 1.16 1.41 1.68 1.09 1.02 0.76 0.37 0.53 0.40 0.38 0.46 0.45 0.53 0.70
0.66 0.40 0.38 0.40 0.45 0.42 0.37 0.29 0.26 0.30 0.37 0.34 0.43 0.46 0.44 0.43 0.43 0.43 0.67 0.90 1.10 0.78 0.73 0.79 1.05 1.14 1.12 1.08 1.24 0.68 0.48 0.39 0.34 0.51 0.60 0.54 0.45 0.66
0.74 0.48 0.40 0.42 0.42 0.43 0.44 0.42 0.37 0.40 0.42 0.50 0.59 0.59 0.68 0.65 0.60 0.63 0.69 0.85 0.85 0.63 0.70 0.79 0.88 1.17 1.05 0.87 0.81 0.74 0.68 0.45 0.32 0.33 0.45 0.86 0.48 0.33
0.63 0.36 0.36 0.41 0.44 0.47 0.52 0.52 0.47 0.34 0.44 0.67 0.78 0.80 0.88 0.92 0.93 0.83 0.62 0.73 0.73 0.61 0.66 0.80 1.08 1.53 1.69 0.79 0.44 0.47 0.87 0.70 0.47 0.45 0.44 0.56 0.61 0.35
0.50 0.40 0.37 0.39 0.46 0.54 0.56 0.58 0.59 0.56 0.59 0.63 0.75 0.78 0.93 1.11 0.97 0.76 0.66 0.77 0.80 0.77 0.75 0.71 0.82 1.14 1.90 1.29 1.21 0.46 0.41 0.82 0.99 0.72 0.44 0.41 0.55 0.47
0.55 0.61 0.51 0.50 0.56 0.58 0.62 0.70 0.76 0.75 0.70 0.84 0.78 0.77 0.75 1.11 0.98 0.68 0.74 0.68 0.85 0.96 0.83 0.46 0.35 0.66 1.17 1.59 1.60 0.64 0.53 0.57 0.81 1.20 0.95 1.02 0.55 0.42
0.48 0.54 0.55 0.62 0.64 0.69 0.77 0.79 0.84 0.70 0.68 0.62 0.57 0.62 0.70 0.93 1.05 0.87 0.76 0.92 0.69 0.57 0.55 0.43 0.53 0.72 0.97 1.41 0.91 0.44 0.41 0.45 0.51 0.51 0.70 1.42 1.76 1.57
0.62 0.69 0.70 0.72 0.76 0.83 0.91 0.92 0.78 0.56 0.47 0.58 0.60 0.60 0.72 0.94 0.70 0.80 0.80 0.78 0.75 0.87 0.66 0.64 0.58 0.65 0.75 0.78 0.87 0.71 0.49 0.41 0.35 0.37 0.41 0.42 0.44 0.47

GFSNE_prec_precacc_300.txt.gz
Total_Precipitation_Accumulation
1.58 1.51 1.51 1.37 1.42 1.59 1.91 2.34 2.98 2.67 1.63 1.00 0.98 1.01 1.09 1.19 1.42 1.29 1.16 1.50 1.50 1.47 1.51 1.55 1.48 1.64 1.75 2.02 2.31 2.38 2.83 3.45 3.37 2.67 2.32 2.34 2.18 2.23
1.64 1.72 1.71 1.67 1.66 1.51 1.49 1.73 2.07 2.54 2.34 1.29 1.18 1.18 1.36 1.63 2.11 2.01 1.90 2.22 1.79 1.61 1.52 1.21 1.06 0.99 1.07 1.11 1.06 1.05 1.34 2.09 2.87 2.78 2.60 2.66 2.88 2.75
1.85 2.12 2.26 2.34 2.49 2.47 2.58 2.76 2.91 3.14 3.19 2.07 1.64 1.51 1.54 1.59 1.56 1.42 1.44 1.36 1.44 1.79 1.75 1.58 1.31 1.09 0.93 0.89 0.94 0.82 0.74 0.84 1.18 1.72 1.93 1.97 2.20 2.56
0.86 1.11 1.21 1.34 1.58 1.69 1.91 2.10 2.46 2.95 3.51 2.77 2.04 1.91 1.81 1.67 1.49 1.26 1.19 1.28 1.32 1.87 2.08 2.05 1.83 1.41 1.29 1.27 1.11 0.98 0.90 0.81 0.72 0.80 1.12 1.36 1.50 1.60
0.75 0.82 0.94 1.05 1.09 1.10 1.17 1.27 1.36 1.53 1.86 1.87 1.47 1.26 1.33 1.53 1.73 1.73 1.57 1.49 1.43 1.94 2.03 2.22 2.17 1.89 1.48 1.29 1.29 1.34 1.31 1.08 0.90 0.82 0.89 1.19 1.53 1.71
0.65 0.72 0.77 0.95 1.13 1.30 1.66 1.87 1.76 1.72 1.59 1.46 1.43 1.29 1.21 1.25 1.35 1.40 1.38 1.25 1.07 1.01 1.33 1.91 2.00 1.70 1.66 1.37 1.18 1.13 1.27 1.38 1.42 1.34 1.19 1.14 1.21 1.39
1.17 1.16 1.30 1.42 1.58 1.47 1.31 1.21 1.36 1.41 1.50 1.66 1.53 1.25 1.13 1.09 1.09 1.13 1.26 1.33 1.38 1.31 1.13 1.31 1.07 0.99 1.08 1.21 1.09 1.11 1.06 1.09 1.17 1.31 1.36 1.34 1.40 1.52
1.36 1.49 1.51 1.85 1.46 1.52 1.49 1.42 1.38 1.40 1.27 1.12 1.09 1.06 1.02 1.07 1.15 1.33 1.44 1.57 1.57 1.25 1.23 1.39 1.16 0.96 0.72 0.61 0.86 0.95 1.11 1.03 0.99 0.96 1.04 1.21 1.22 1.21
0.96 0.99 0.86 0.93 1.05 0.88 1.05 1.04 1.00 0.97 0.93 0.93 0.90 0.78 0.76 0.79 1.01 1.21 1.24 1.33 1.28 1.10 1.38 1.65 1.43 1.19 0.89 0.78 0.74 0.53 0.55 0.65 0.67 0.72 0.76 0.83 1.00 1.22
0.68 0.58 0.53 0.54 0.63 0.63 0.66 0.75 0.78 0.76 0.75 0.70 0.72 0.76 0.79 0.85 0.99 1.24 1.24 1.37 1.33 1.16 0.99 1.10 0.98 0.99 0.77 0.64 0.68 0.47 0.43 0.41 0.42 0.45 0.54 0.67 0.77 0.85
0.54 0.49 0.52 0.47 0.66 0.63 0.52 0.56 0.57 0.58 0.85 0.97 1.05 1.19 1.26 1.22 1.09 1.06 1.13 1.19 1.14 0.75 0.58 0.54 0.66 0.78 0.86 0.63 0.42 0.47 0.42 0.42 0.47 0.53 0.48 0.50 0.63 0.74
0.40 0.41 0.56 0.61 0.79 0.65 0.49 0.39 0.43 0.38 0.40 0.48 0.52 0.60 0.67 0.72 0.82 0.71 0.68 0.96 0.91 1.03 0.64 0.84 0.70 0.61 1.04 0.63 0.43 0.38 0.31 0.31 0.33 0.41 0.66 0.75 0.69 0.70
0.30 0.28 0.35 0.58 0.73 0.72 0.66 0.50 0.55 0.57 0.54 0.48 0.42 0.43 0.48 0.58 0.62 0.63 0.64 0.85 1.15 0.92 0.37 1.13 1.38 0.77 1.02 0.52 0.33 0.34 0.22 0.22 0.28 0.34 0.45 0.63 0.87 0.90
0.30 0.30 0.42 0.62 0.74 0.67 0.53 0.43 0.42 0.41 0.31 0.25 0.23 0.24 0.31 0.42 0.49 0.59 0.75 0.88 0.91 0.95 0.63 0.85 1.70 0.80 1.16 1.03 0.50 0.34 0.29 0.22 0.25 0.30 0.37 0.58 0.76 0.90
0.32 0.39 0.49 0.53 0.59 0.47 0.34 0.34 0.29 0.22 0.21 0.24 0.19 0.18 0.20 0.28 0.45 0.64 0.81 0.92 1.05 1.04 1.04 1.05 1.18 1.06 1.41 1.40 0.77 0.40 0.43 0.36 0.25 0.27 0.37 0.52 0.64 0.72
0.31 0.33 0.40 0.51 0.55 0.47 0.39 0.29 0.20 0.24 0.30 0.33 0.27 0.21 0.25 0.36 0.51 0.59 0.76 0.77 1.01 0.90 0.96 1.15 1.19 1.43 1.71 1.11 1.06 0.83 0.41 0.56 0.41 0.38 0.46 0.45 0.53 0.70
0.66 0.40 0.38 0.40 0.45 0.43 0.41 0.36 0.36 0.45 0.49 0.42 0.47 0.49 0.46 0.44 0.43 0.43 0.67 0.90 1.10 0.79 0.75 0.84 1.10 1.18 1.16 1.13 1.30 0.72 0.50 0.41 0.35 0.51 0.60 0.54 0.45 0.66
0.74 0.48 0.40 0.42 0.43 0.44 0.49 0.54 0.54 0.58 0.54 0.58 0.64 0.63 0.70 0.65 0.60 0.63 0.69 0.86 0.85 0.63 0.71 0.83 0.92 1.21 1.09 0.91 0.85 0.77 0.72 0.48 0.35 0.33 0.45 0.86 0.48 0.33
0.63 0.37 0.36 0.41 0.45 0.48 0.55 0.62 0.62 0.49 0.54 0.73 0.82 0.84 0.89 0.93 0.94 0.83 0.62 0.73 0.73 0.62 0.68 0.83 1.12 1.55 1.71 0.81 0.49 0.51 0.90 0.73 0.48 0.45 0.44 0.56 0.61 0.35
0.51 0.41 0.38 0.40 0.46 0.55 0.60 0.68 0.71 0.67 0.67 0.68 0.79 0.81 0.94 1.11 0.97 0.76 0.67 0.78 0.81 0.77 0.76 0.73 0.85 1.18 1.93 1.32 1.25 0.52 0.44 0.83 0.99 0.72 0.44 0.41 0.55 0.47
0.55 0.61 0.51 0.50 0.56 0.62 0.70 0.81 0.87 0.84 0.77 0.89 0.81 0.78 0.75 1.11 0.98 0.68 0.74 0.68 0.86 0.97 0.84 0.48 0.39 0.71 1.22 1.63 1.62 0.67 0.54 0.57 0.81 1.20 0.95 1.02 0.55 0.42
0.48 0.55 0.55 0.63 0.66 0.73 0.86 0.90 0.94 0.78 0.73 0.66 0.59 0.63 0.70 0.94 1.05 0.87 0.77 0.93 0.69 0.57 0.56 0.44 0.54 0.73 0.98 1.42 0.93 0.45 0.42 0.46 0.51 0.51 0.70 1.42 1.76 1.57
0.64 0.71 0.73 0.75 0.81 0.91 1.01 1.01 0.85 0.62 0.50 0.60 0.61 0.60 0.72 0.94 0.70 0.80 0.81 0.79 0.75 0.88 0.67 0.64 0.58 0.65 0.76 0.78 0.88 0.72 0.49 0.42 0.35 0.37 0.41 0.42 0.44 0.47

GFSNE_prec_precacc_306.txt.gz
Total_Precipitation_Accumulation
1.58 1.51 1.51 1.37 1.42 1.59 1.91 2.34 2.98 2.67 1.63 1.00 0.98 1.01 1.09 1.19 1.42 1.29 1.16 1.50 1.50 1.47 1.51 1.56 1.50 1.66 1.78 2.05 2.35 2.44 2.91 3.55 3.47 2.81 2.47 2.48 2.24 2.26
1.64 1.72 1.71 1.67 1.66 1.51 1.49 1.73 2.07 2.54 2.35 1.29 1.18 1.18 1.36 1.63 2.11 2.01 1.90 2.22 1.79 1.61 1.53 1.22 1.07 1.01 1.09 1.14 1.09 1.10 1.42 2.19 2.98 2.94 2.79 2.90 3.01 2.77
1.85 2.12 2.26 2.34 2.49 2.47 2.58 2.76 2.91 3.14 3.19 2.07 1.64 1.51 1.54 1.59 1.56 1.42 1.44 1.36 1.44 1.79 1.76 1.61 1.34 1.12 0.96 0.94 0.99 0.91 0.86 1.01 1.45 2.10 2.40 2.48 2.48 2.60
0.86 1.11 1.21 1.34 1.58 1.69 1.91 2.10 2.46 2.95 3.51 2.77 2.04 1.91 1.81 1.67 1.49 1.26 1.19 1.28 1.33 1.87 2.09 2.09 1.87 1.46 1.37 1.36 1.21 1.12 1.08 1.07 1.08 1.25 1.71 2.00 1.73 1.68
0.75 0.82 0.94 1.05 1.09 1.10 1.17 1.27 1.36 1.53 1.86 1.87 1.47 1.26 1.33 1.53 1.73 1.74 1.58 1.49 1.43 1.95 2.05 2.26 2.22 2.00 1.63 1.49 1.54 1.63 1.62 1.51 1.46 1.49 1.49 1.65 1.72 1.83
0.65 0.72 0.77 0.95 1.13 1.30 1.66 1.87 1.76 1.72 1.60 1.46 1.43 1.29 1.21 1.25 1.35 1.40 1.38 1.25 1.07 1.02 1.35 1.95 2.09 1.87 1.85 1.55 1.37 1.34 1.46 1.74 2.01 1.97 1.75 1.61 1.47 1.49
1.17 1.16 1.30 1.42 1.58 1.47 1.31 1.21 1.36 1.41 1.50 1.67 1.53 1.25 1.13 1.09 1.09 1.13 1.27 1.33 1.38 1.32 1.17 1.38 1.13 1.07 1.20 1.36 1.22 1.23 1.22 1.43 1.62 1.65 1.71 1.71 1.62 1.59
1.36 1.49 1.51 1.85 1.46 1.52 1.49 1.42 1.39 1.41 1.28 1.13 1.09 1.06 1.02 1.07 1.16 1.35 1.46 1.59 1.58 1.26 1.26 1.45 1.25 1.11 0.87 0.78 1.05 1.11 1.33 1.30 1.28 1.22 1.27 1.39 1.34 1.26
0.96 0.99 0.86 0.93 1.05 0.88 1.05 1.04 1.01 0.98 0.94 0.94 0.90 0.78 0.77 0.81 1.03 1.22 1.26 1.34 1.31 1.15 1.47 1.83 1.62 1.39 1.08 0.93 0.86 0.68 0.72 0.93 0.92 0.88 0.91 0.98 1.09 1.25
0.68 0.58 0.53 0.54 0.63 0.63 0.66 0.75 0.78 0.77 0.76 0.70 0.72 0.76 0.80 0.87 1.00 1.26 1.25 1.39 1.38 1.23 1.07 1.24 1.15 1.13 0.91 0.85 0.90 0.65 0.61 0.52 0.49 0.58 0.64 0.71 0.78 0.86
0.54 0.49 0.52 0.47 0.66 0.63 0.53 0.56 0.57 0.58 0.85 0.97 1.06 1.21 1.29 1.27 1.14 1.10 1.16 1.25 1.22 0.82 0.66 0.61 0.78 0.93 1.03 0.79 0.54 0.62 0.54 0.49 0.51 0.62 0.53 0.51 0.63 0.75
0.40 0.41 0.56 0.61 0.79 0.65 0.49 0.40 0.43 0.38 0.40 0.48 0.53 0.62 0.70 0.78 0.90 0.78 0.77 1.09 1.06 1.15 0.72 0.90 0.80 0.68 1.14 0.80 0.55 0.45 0.35 0.35 0.36 0.43 0.67 0.76 0.69 0.70
0.30 0.28 0.35 0.58 0.73 0.72 0.66 0.50 0.55 0.58 0.54 0.49 0.43 0.46 0.50 0.62 0.69 0.72 0.74 0.99 1.35 1.11 0.51 1.21 1.45 0.80 1.04 0.57 0.40 0.42 0.26 0.25 0.30 0.36 0.46 0.63 0.87 0.90
0.30 0.30 0.42 0.62 0.74 0.68 0.53 0.44 0.44 0.43 0.32 0.27 0.27 0.28 0.37 0.49 0.57 0.68 0.85 1.01 1.09 1.13 0.78 0.97 1.79 0.84 1.17 1.04 0.53 0.41 0.36 0.28 0.28 0.31 0.37 0.59 0.77 0.90
0.32 0.39 0.49 0.53 0.59 0.47 0.34 0.35 0.31 0.24 0.23 0.29 0.25 0.24 0.27 0.35 0.51 0.70 0.86 1.00 1.14 1.13 1.13 1.14 1.26 1.11 1.42 1.40 0.77 0.44 0.50 0.46 0.30 0.28 0.38 0.52 0.64 0.72
0.31 0.33 0.40 0.51 0.55 0.48 0.39 0.30 0.20 0.25 0.33 0.39 0.34 0.28 0.32 0.45 0.59 0.65 0.80 0.82 1.06 0.93 0.99 1.21 1.22 1.45 1.73 1.13 1.08 0.88 0.45 0.60 0.46 0.40 0.47 0.45 0.53 0.70
0.66 0.40 0.38 0.40 0.45 0.43 0.41 0.36 0.37 0.46 0.54 0.48 0.56 0.58 0.55 0.53 0.50 0.48 0.72 0.93 1.11 0.80 0.78 0.91 1.17 1.23 1.22 1.19 1.36 0.77 0.53 0.44 0.38 0.53 0.61 0.55 0.45 0.66
0.75 0.48 0.41 0.43 0.43 0.45 0.50 0.54 0.55 0.59 0.59 0.66 0.72 0.71 0.78 0.73 0.65 0.67 0.73 0.87 0.85 0.64 0.75 0.90 1.00 1.27 1.15 0.98 0.90 0.82 0.77 0.52 0.41 0.36 0.46 0.86 0.48 0.33
0.64 0.37 0.37 0.42 0.45 0.48 0.56 0.63 0.63 0.51 0.60 0.81 0.90 0.91 0.95 0.98 0.97 0.86 0.64 0.74 0.74 0.63 0.71 0.88 1.19 1.62 1.76 0.85 0.55 0.58 0.94 0.78 0.54 0.50 0.47 0.57 0.61 0.35
0.51 0.41 0.38 0.40 0.47 0.56 0.61 0.70 0.74 0.73 0.74 0.76 0.86 0.87 1.00 1.15 1.00 0.78 0.68 0.78 0.81 0.78 0.78 0.77 0.90 1.24 1.99 1.37 1.30 0.62 0.54 0.88 1.03 0.76 0.46 0.41 0.55 0.47
0.55 0.61 0.51 0.51 0.57 0.64 0.72 0.84 0.93 0.93 0.86 0.96 0.88 0.85 0.81 1.15 1.00 0.70 0.74 0.69 0.86 0.98 0.86 0.51 0.44 0.76 1.27 1.67 1.67 0.75 0.65 0.65 0.84 1.21 0.96 1.02 0.55 0.42
0.48 0.55 0.56 0.64 0.68 0.77 0.90 0.96 1.03 0.88 0.82 0.73 0.65 0.70 0.76 0.97 1.06 0.88 0.77 0.93 0.70 0.58 0.58 0.48 0.60 0.79 1.02 1.46 0.97 0.50 0.50 0.52 0.54 0.52 0.70 1.42 1.76 1.57
0.64 0.72 0.73 0.77 0.83 0.95 1.07 1.10 0.96 0.72 0.59 0.68 0.68 0.67 0.76 0.97 0.72 0.80 0.81 0.79 0.76 0.90 0.70 0.68 0.63 0.70 0.81 0.85 0.93 0.78 0.56 0.47 0.39 0.39 0.41 0.42 0.44 0.47